User: anonymous
Location: Unspecified
(0.0000°N, 0.0000°E)
Time: 03:12:10
(UTC+00:00)
Language:

NAVSTAR 64 (USA 206) - Orbit

View from above orbital plane
View from above orbital plane
View from above satellite
View from above satellite

Ground track
Ground track

The orbit data is extracted from the following two-line orbital elements,

1 35752U 09043A   14109.35106862  .00000009  00000-0  00000+0 0  7394
2 35752 054.2810 206.3373 0034924 014.8149 048.8537 02.00574127 34265
Epoch (UTC): 19 April 2014 08:25:32
Eccentricity: 0.0034924
inclination: 54.2810°
perigee height: 20088 km
apogee height: 20274 km
right ascension of ascending node: 206.3373°
argument of perigee: 14.8149°
revolutions per day: 2.00574127
mean anomaly at epoch: 48.8537°
orbit number at epoch: 3426

The dashed part of the orbit path shows where the satellite is in the earth's shadow,  

DLR